Theta_e
312 313 314 314 313 311 310 311 311 311 310 311 311 311 311 311 310 312 314 310 312 309 310 311 312 311 314 318 319 321 323 325 326 328 329 330 331 330 328 327 328 328 328 327 327
309 310 310 313 314 312 311 310 312 311 311 311 311 311 311 310 310 312 312 312 312 310 310 312 315 313 316 317 319 320 322 322 323 325 325 325 325 328 327 327 329 328 327 326 325
309 309 308 308 311 313 312 311 311 312 311 311 311 310 310 309 317 323 317 314 310 310 309 314 317 315 316 317 318 319 320 320 321 322 323 322 323 323 324 324 327 327 326 326 326
306 309 309 308 307 309 313 312 311 312 311 311 310 309 309 311 325 323 314 314 313 309 308 314 319 316 316 317 319 319 319 320 320 321 321 321 322 321 321 322 322 323 323 323 324
302 306 308 308 307 306 308 312 310 310 312 310 310 310 310 320 320 315 311 314 311 307 311 318 317 317 317 318 319 319 320 320 320 320 320 321 320 319 319 321 321 321 321 321 322
300 301 305 306 306 305 305 311 312 309 309 311 311 310 313 320 317 315 313 310 309 309 316 318 318 318 318 319 319 320 320 320 320 320 320 320 319 319 319 320 320 321 320 321 322
299 299 300 303 305 304 305 309 310 309 308 309 312 311 314 317 315 316 315 314 315 316 318 317 318 318 319 319 320 320 319 320 320 320 320 320 319 319 320 320 320 320 321 321 322
299 299 300 301 303 304 305 308 308 306 308 310 312 312 318 315 314 319 316 317 317 317 318 317 319 319 319 320 319 319 319 319 320 319 319 319 319 320 321 321 320 320 320 321 322
305 300 299 302 304 304 305 308 311 312 311 311 312 314 321 311 313 319 317 316 315 316 319 319 319 319 319 320 320 319 318 319 319 320 320 319 319 320 321 320 320 321 321 321 322
308 303 300 302 303 304 306 310 314 314 313 314 315 319 321 320 312 318 318 316 316 318 318 318 318 319 319 319 320 319 319 319 320 320 320 318 318 319 320 319 320 321 321 322 322
310 305 301 303 304 306 309 314 322 323 320 321 323 320 317 315 316 317 318 317 317 318 318 319 318 320 320 320 319 319 319 320 319 319 319 319 320 320 320 321 321 321 322 323 324
311 307 302 305 306 307 308 317 320 320 321 322 320 320 319 319 318 317 318 317 317 319 319 320 319 319 319 319 319 318 318 320 319 319 319 319 320 320 321 321 322 324 323 323 323
311 307 303 305 307 309 314 318 318 319 321 323 322 319 319 318 319 318 318 318 319 320 320 320 321 319 318 319 319 319 319 318 318 319 320 320 321 322 322 323 324 323 323 322 324
311 308 305 306 310 319 318 318 316 319 324 322 319 320 319 318 320 320 319 318 319 319 319 320 319 319 318 318 318 318 318 319 320 320 320 321 323 324 323 324 324 324 324 322 324
311 308 309 307 313 319 318 317 317 320 338 324 321 320 319 319 321 319 319 318 318 318 317 319 319 319 318 318 319 319 320 320 320 322 322 322 323 324 324 324 324 323 322 322 322
310 308 310 316 314 317 316 317 319 326 336 323 321 319 320 319 320 320 319 317 318 317 318 319 319 319 319 319 320 320 320 321 322 322 324 323 324 324 324 323 322 322 321 321 321
310 309 310 313 319 316 317 320 328 330 326 323 322 320 320 320 320 320 319 318 317 319 319 318 318 319 319 319 319 320 322 324 327 326 325 325 326 325 322 321 321 321 320 320 321
310 312 314 315 317 318 319 326 331 324 324 321 320 320 321 321 321 320 321 321 320 319 320 322 323 322 322 321 321 322 323 325 330 329 326 324 327 324 320 320 321 320 321 321 320
310 318 319 319 318 320 324 330 327 324 321 320 320 321 321 321 320 321 321 320 321 321 324 322 321 320 321 321 320 321 321 322 325 324 325 323 322 320 320 320 321 321 320 319 319
309 317 322 318 319 322 326 327 322 320 320 319 321 322 322 324 323 322 322 324 323 321 320 321 323 322 322 321 320 320 320 324 322 327 326 322 321 320 321 320 319 318 317 318 318
313 324 319 320 320 324 328 323 322 320 319 320 321 321 321 321 321 324 323 322 321 321 320 321 323 324 322 323 321 319 320 320 320 327 327 323 321 319 319 318 318 317 317 317 317
317 324 319 319 325 328 322 322 314 318 319 320 320 320 321 321 324 322 321 322 321 320 321 321 323 325 323 322 319 319 319 323 327 323 322 324 322 321 319 317 317 317 317 317 318
317 319 319 318 325 326 323 321 319 319 319 320 320 320 320 320 321 322 322 319 319 321 321 320 323 326 324 322 320 321 318 318 320 323 325 327 322 318 318 319 317 317 316 316 318
316 320 322 320 320 321 321 321 320 320 319 319 320 320 320 320 320 322 321 320 318 318 324 318 322 326 328 326 324 323 321 318 318 321 318 318 319 319 321 318 317 318 318 318 319
317 319 320 319 322 322 320 319 319 319 319 318 319 319 320 320 320 321 319 320 320 319 316 318 321 320 320 321 322 322 323 320 319 317 318 317 317 317 317 317 318 319 318 317 316
318 316 316 318 317 319 316 319 320 319 318 318 318 317 317 319 318 320 318 318 320 320 320 319 320 320 322 320 320 320 320 320 317 316 315 315 316 316 317 317 318 317 316 315 316
314 313 315 316 317 318 317 319 317 316 315 316 316 316 315 315 315 315 316 316 316 318 320 321 321 321 323 319 318 320 318 318 316 316 315 315 316 317 319 318 317 317 316 315 314
Wind_Speed
23 22 21 20 19 18 15 15 13 13 13 14 15 15 15 16 19 17 21 16 11 23 16 13 20 22 24 21 21 22 15 16 24 23 17 10 1 16 3 13 10 5 8 7 12
27 26 26 22 21 19 17 15 14 13 13 14 14 15 15 16 18 25 26 24 20 18 15 19 19 21 17 20 18 19 16 25 21 20 18 20 17 12 6 17 16 13 14 12 8
27 27 28 27 24 22 20 16 14 13 12 13 14 14 14 13 13 3 6 23 23 23 20 23 17 19 20 18 22 23 19 19 23 20 17 8 11 7 11 19 12 10 12 12 9
25 25 26 27 28 24 22 19 15 14 12 12 13 13 13 9 4 5 3 11 15 15 18 23 21 20 19 21 21 19 22 22 21 21 5 8 9 15 15 15 14 10 12 11 10
23 24 25 26 27 27 26 22 17 14 13 12 10 11 9 8 12 5 4 10 11 13 19 20 18 18 19 19 19 22 18 21 22 17 5 8 13 14 16 15 14 12 11 10 11
23 23 24 26 26 28 29 24 20 16 14 11 9 8 7 11 3 6 6 8 12 17 22 25 13 17 18 18 17 15 21 18 11 15 13 15 15 14 15 12 14 10 11 13 12
25 24 24 25 26 28 30 26 21 17 14 11 8 5 10 16 2 5 7 10 15 23 19 16 15 14 13 14 11 19 6 14 19 11 15 13 15 17 17 15 15 13 10 11 11
26 26 24 25 26 27 30 31 21 12 12 9 6 5 8 7 14 9 10 12 10 13 14 9 7 13 14 9 6 12 13 14 17 19 16 13 14 14 15 17 14 6 10 11 12
29 28 27 25 26 27 30 27 10 9 8 6 4 7 8 8 12 12 11 7 9 10 8 0 8 12 13 12 10 11 13 18 18 23 13 15 13 15 11 7 8 9 10 11 11
32 32 29 28 28 29 30 12 6 1 2 5 10 7 11 12 14 13 11 8 9 7 8 8 8 11 12 11 12 18 18 15 17 15 12 12 14 13 12 11 11 14 11 10 9
35 36 33 35 31 25 22 6 4 6 13 9 5 7 2 8 12 10 12 9 10 9 11 14 11 13 16 17 19 18 12 12 7 4 5 6 9 12 14 14 13 12 11 11 9
36 38 43 34 28 23 11 6 7 12 11 23 14 14 13 3 8 10 13 10 12 13 14 12 13 16 14 13 7 9 9 13 12 11 9 10 13 14 15 15 14 13 11 10 8
38 41 44 35 30 14 14 14 13 12 7 9 18 15 11 3 10 12 13 14 10 13 14 14 12 11 8 5 7 11 12 13 13 12 6 8 16 19 19 20 18 13 8 5 9
40 43 36 32 12 7 11 8 8 7 5 11 9 8 17 9 7 14 13 12 13 12 13 13 14 5 8 10 12 11 12 13 9 10 10 12 14 16 14 13 14 12 9 10 13
40 43 28 12 15 3 5 4 6 3 2 10 10 9 16 13 11 9 12 14 14 14 9 14 13 14 11 12 11 11 9 9 8 12 14 16 12 14 15 16 2 14 13 12 9
39 40 19 8 6 11 6 6 6 5 2 7 8 10 14 17 9 13 11 12 10 13 16 17 17 7 11 11 4 7 9 12 15 14 14 20 18 15 7 10 9 10 8 8 9
40 27 12 12 8 8 7 7 5 5 9 3 11 11 16 13 12 10 14 14 11 10 13 14 16 14 12 13 11 12 12 10 12 11 12 9 6 8 6 10 7 6 5 5 7
41 15 9 11 12 9 9 8 7 7 9 5 5 3 13 11 9 13 12 11 15 17 14 12 10 2 13 6 6 10 12 7 9 10 13 17 7 7 1 8 9 5 7 6 5
33 14 9 8 8 10 8 6 5 7 6 8 11 9 12 9 5 9 12 9 8 11 12 9 13 3 3 6 4 7 10 11 9 12 11 12 18 13 11 10 11 7 9 8 8
20 12 17 2 5 9 8 11 1 4 6 7 10 8 3 5 4 7 5 5 10 4 3 7 11 14 13 5 11 13 10 8 6 4 8 9 7 5 9 5 2 8 10 7 8
6 5 7 4 4 7 9 4 2 7 4 5 9 12 13 12 8 12 5 5 5 8 5 9 8 12 9 7 11 8 9 11 11 7 4 5 7 8 7 5 7 10 11 11 11
7 6 7 3 6 8 7 5 3 6 2 6 5 8 10 11 13 16 10 6 8 4 7 2 4 11 17 15 11 11 11 10 6 10 10 10 14 16 5 6 10 13 12 12 10
5 9 6 3 6 7 6 4 5 6 5 4 6 10 10 8 6 8 11 12 2 11 3 2 5 9 13 12 13 10 13 12 10 10 15 12 9 14 16 14 12 12 14 13 12
5 4 5 5 5 8 10 8 9 6 4 3 6 9 10 9 8 5 8 4 12 4 12 3 8 11 10 3 8 9 15 15 15 12 14 16 19 15 15 12 14 13 12 14 15
4 3 3 5 4 6 8 11 10 6 3 4 4 5 6 4 7 9 7 9 7 3 4 7 12 15 17 20 12 15 19 20 18 17 17 16 18 17 16 14 12 13 15 17 19
4 5 6 11 9 8 5 9 6 2 2 1 3 8 5 9 9 11 10 8 7 5 4 8 11 12 15 19 19 21 19 22 20 19 18 19 19 18 11 12 13 14 18 20 20
15 11 5 8 9 6 4 4 3 3 5 2 5 6 7 6 8 11 11 10 12 11 3 3 5 6 13 16 15 16 19 21 17 15 16 15 13 13 13 16 17 17 18 19 19
Wind_Direction
360 354 349 345 340 335 329 321 318 311 303 301 296 294 295 294 296 283 251 233 237 243 269 268 219 224 227 235 230 217 234 239 244 250 242 251 227 248 315 302 314 313 305 341 90
4 359 357 350 343 338 330 323 317 314 306 300 296 294 295 299 296 275 251 235 241 245 241 229 203 211 217 226 221 225 224 236 241 249 275 281 311 229 227 246 257 255 258 275 270
356 356 356 354 348 342 336 324 318 310 305 302 300 300 302 312 276 332 40 217 226 235 234 239 218 204 217 214 221 218 235 234 246 247 233 289 306 282 264 273 253 259 295 289 304
348 349 349 350 350 345 337 329 315 307 301 303 303 305 306 296 303 52 160 194 215 221 231 254 244 201 214 220 218 215 229 249 251 233 235 241 273 289 279 267 289 286 280 296 294
346 345 345 346 345 344 342 329 318 303 296 298 306 317 319 239 257 62 89 187 194 197 229 239 221 204 214 219 217 220 234 227 242 267 261 250 250 251 259 269 263 261 268 277 259
342 343 342 341 339 340 339 330 320 300 296 291 297 309 267 265 72 116 120 167 188 201 236 241 217 209 217 233 216 219 231 250 223 248 238 245 247 243 248 249 266 269 264 260 267
339 341 339 337 334 333 334 329 317 296 286 282 281 286 265 254 332 154 153 172 200 217 234 229 227 221 249 249 243 234 245 238 251 232 237 238 247 249 241 231 201 219 237 257 271
338 337 336 334 330 329 331 328 313 295 281 267 259 259 261 265 232 198 196 220 240 244 264 250 305 284 232 262 219 233 239 253 224 222 226 220 253 255 221 212 216 231 231 235 242
338 337 335 332 328 325 325 324 306 295 262 217 237 219 263 152 208 210 208 217 200 228 280 287 252 256 239 250 222 216 239 224 252 219 194 198 245 236 134 161 226 238 253 261 248
339 336 334 329 325 321 322 322 290 222 172 214 258 262 260 234 188 194 202 214 205 208 203 230 224 232 237 219 220 213 211 237 248 163 186 240 228 259 270 254 227 228 229 248 252
339 337 332 323 319 320 327 278 208 198 216 219 193 237 307 188 151 185 195 219 212 219 229 197 226 217 222 217 246 281 305 308 201 176 219 243 273 284 283 282 275 272 263 256 253
336 336 334 322 315 313 292 236 306 319 291 219 239 228 274 305 195 201 184 208 206 232 219 238 226 248 236 256 252 282 283 278 290 298 284 265 272 275 271 268 264 268 271 271 283
335 336 338 324 315 292 212 244 272 315 284 233 201 215 223 263 252 200 192 216 213 230 244 241 231 202 281 279 260 255 257 271 269 276 262 294 272 256 248 240 240 236 229 237 235
334 338 339 324 308 247 211 251 240 301 275 149 180 215 193 192 244 237 192 231 250 237 233 249 260 225 259 247 237 246 238 240 268 279 266 267 292 296 290 269 251 235 226 50 28
333 339 334 316 305 269 22 315 329 255 317 176 132 129 172 193 140 231 180 231 245 261 261 256 230 254 208 246 239 249 315 329 294 277 279 273 268 267 254 241 164 61 46 27 19
332 337 324 301 235 265 300 302 260 234 262 177 139 181 175 215 180 148 182 240 263 271 283 282 297 265 258 237 304 335 309 285 271 259 258 259 251 262 274 55 69 58 33 16 6
331 331 295 286 308 324 314 256 246 254 218 127 162 153 190 193 201 182 194 206 222 220 235 256 272 267 237 248 252 240 230 262 264 237 246 264 349 281 346 99 79 51 9 23 16
330 314 277 245 293 310 282 256 254 257 60 27 319 203 207 195 228 186 197 221 217 247 268 273 252 342 360 301 297 304 297 273 265 287 301 317 225 286 153 97 108 51 36 357 304
333 311 250 237 282 301 280 258 323 18 14 345 326 252 253 212 251 197 234 253 247 236 264 277 256 216 212 293 330 278 310 359 321 283 275 277 284 260 135 117 103 159 216 231 258
324 298 261 215 267 287 268 259 332 55 359 313 288 313 317 212 265 299 232 286 301 244 287 283 286 281 274 233 269 261 269 278 257 271 262 258 284 80 81 87 359 320 323 308 284
285 250 111 206 241 258 257 356 4 90 344 330 337 323 321 319 294 244 214 216 222 261 255 285 273 270 299 227 232 255 233 252 257 200 231 277 265 93 10 12 300 296 295 279 281
294 264 114 184 244 232 268 20 14 275 189 275 265 276 291 321 324 312 292 184 297 247 224 321 330 254 254 237 252 277 249 225 246 244 241 239 257 282 348 274 255 250 266 307 330
286 293 137 205 261 284 145 269 255 256 282 317 304 315 300 300 292 292 333 345 85 255 253 265 232 265 258 253 227 239 241 252 263 248 238 253 267 288 283 268 287 296 305 307 311
282 285 175 198 278 307 321 293 257 117 262 310 319 313 299 289 284 274 287 341 338 33 101 98 259 247 267 347 339 244 254 232 233 232 248 248 261 266 268 302 313 320 341 341 338
248 6 29 298 44 337 306 301 285 264 132 337 280 58 353 292 328 289 299 308 287 220 219 224 256 266 274 288 236 249 275 272 254 254 251 262 271 291 304 316 347 355 349 334 331
298 349 359 295 282 294 265 288 304 41 6 241 255 334 309 289 293 294 298 300 273 333 310 309 256 273 273 270 267 268 249 258 267 267 276 281 284 280 349 328 6 341 334 328 324
355 319 271 297 281 242 300 18 6 312 290 298 357 306 290 302 330 303 289 274 271 274 244 236 245 267 265 266 262 260 255 259 264 292 257 270 303 349 2 356 347 338 329 334 341